1374710426032,0.825356
1374710486032,0.825652
1374710546032,0.822194
1374710606032,0.826726
1374710666032,0.834009
1374710726032,0.832010
1374710786032,0.820919
1374710846032,0.826162
1374710906032,0.827361
1374710966032,0.828237
1374711026032,0.823030
1374711086032,0.832256
1374711146032,0.820382
1374711206032,0.828568
1374711266032,0.818051
1374711326032,0.830387
1374711386032,0.826317
1374711446032,0.825548
1374711506032,0.821455
1374711566032,0.836432
1374711626032,0.833985
1374711686032,0.833286
1374711746032,0.820924
1374711806032,0.831222
1374711866032,0.831036
1374711926032,0.840903
1374711986032,0.829388
1374712046032,0.835358
1374712106032,0.825751
1374712166032,0.834919
1374712226032,0.834626
1374712286032,0.830049
1374712346032,0.833214
1374712406032,0.832967
1374712466032,0.832106
1374712526032,0.834560
1374712586032,0.820724
1374712646032,0.825081
1374712706032,0.827395
1374712766032,0.831879
1374712826032,0.826635
1374712886032,0.832052
1374712946032,0.833582
1374713006032,0.827661
1374713066032,0.833816
1374713126032,0.827584
1374713186032,0.824112
1374713246032,0.829749
1374713306032,0.830743
1374713366032,0.830183
1374713426032,0.834620
1374713486032,0.826814
1374713546032,0.832162
1374713606032,0.824162
1374713666032,0.829881
1374713726032,0.838472
1374713786032,0.826861
1374713846032,0.826006
1374713906032,0.834613
1374713966032,0.827028
1374714026042,0.827010
1374714086042,0.826042
1374714146042,0.834009
1374714206042,0.825692
1374714266042,0.832222
1374714326042,0.828055
1374714386042,0.826448
1374714446042,0.826713
1374714506042,0.828118
1374714566042,0.828524
1374714626042,0.825745
1374714686042,0.832436
1374714746042,0.819245
1374714806042,0.831317
1374714866042,0.823229
1374714926042,0.823412
1374714986042,0.823757
1374715046042,0.828190
1374715106042,0.822091
1374715166042,0.826636
1374715226042,0.826076
1374715286042,0.823678
1374715346042,0.823916
1374715406042,0.824533
1374715466042,0.828824
1374715526042,0.822274
1374715586042,0.831241
1374715646042,0.821964
1374715706042,0.828369
1374715766042,0.820233
1374715826042,0.831810
1374715886042,0.831334
1374715946042,0.834483
1374716006042,0.833926
1374716066042,0.829304
1374716126042,0.833799
1374716186042,0.832877
1374716246042,0.827500
1374716306042,0.839083
1374716366042,0.828466
1374716426042,0.828951
1374716486042,0.827471
1374716546042,0.836709
1374716606042,0.826192
1374716666042,0.828161
1374716726042,0.828847
1374716786042,0.838780
1374716846042,0.828120
1374716906042,0.831816
1374716966042,0.831585
1374717026042,0.834829
1374717086042,0.829591
1374717146042,0.830498
1374717206042,0.830095
1374717266042,0.824308
1374717326042,0.829282
1374717386042,0.831814
1374717446042,0.826137
1374717506042,0.823605
1374717566042,0.830346
1374717626052,0.821450
1374717686052,0.817520
1374717746052,0.818477
1374717806052,0.828012
1374717866052,0.824220
1374717926052,0.826240
1374717986052,0.830059
1374718046052,0.830048
1374718106052,0.820538
1374718166052,0.825209
1374718226052,0.832490
1374718286052,0.824426
1374718346052,0.827377
1374718406052,0.827200
1374718466052,0.828803
1374718526052,0.825320
1374718586052,0.824439
1374718646052,0.824742
1374718706052,0.825018
1374718766052,0.826833
1374718826052,0.822925
1374718886052,0.828085
1374718946052,0.828611
1374719006052,0.828688
1374719066052,0.823965
1374719126052,0.828994
1374719186052,0.832164
1374719246052,0.830301
1374719306052,0.833947
1374719366052,0.832863
1374719426052,0.824382
1374719486052,0.833416
1374719546052,0.830554
1374719606052,0.830810
1374719666052,0.834145
1374719726052,0.834999
1374719786052,0.833473
1374719846052,0.835597
1374719906052,0.831042
1374719966052,0.835606
1374720026052,0.832036
1374720086052,0.835221
1374720146052,0.841761
1374720206052,0.844675
1374720266052,0.844307
1374720326052,0.852067
1374720386052,0.839683
1374720446052,0.849102
1374720506052,0.842237
1374720566052,0.853291
1374720626052,0.858849
1374720686052,0.852999
1374720746052,0.853915
1374720806052,0.851168
1374720866052,0.849997
1374720926052,0.851164
1374720986052,0.855484
1374721046052,0.845970
1374721106052,0.849719
1374721166052,0.847125
1374721226061,0.841475
1374721286061,0.847415
1374721346061,0.847175
1374721406061,0.844131
1374721466061,0.848556
1374721526061,0.843410
1374721586061,0.850262
1374721646061,0.847643
1374721706061,0.843992
1374721766061,0.842184
1374721826061,0.848513
1374721886061,0.850990
1374721946061,0.839197
1374722006061,0.843086
1374722066061,0.845858
1374722126061,0.854107
1374722186061,0.845715
1374722246061,0.848362
1374722306061,0.855304
1374722366061,0.844210
1374722426061,0.853459
1374722486061,0.854360
1374722546061,0.845645
1374722606061,0.848703
1374722666061,0.856001
1374722726061,0.852229
1374722786061,0.848437
1374722846061,0.849208
1374722906061,0.846898
1374722966061,0.840022
1374723026061,0.851140
1374723086061,0.843052
1374723146061,0.838597
1374723206061,0.849238
1374723266061,0.841672
1374723326061,0.845770
1374723386061,0.844686
1374723446061,0.845043
1374723506061,0.850660
1374723566061,0.853483
1374723626061,0.843642
1374723686061,0.840494
1374723746061,0.848813
1374723806061,0.839377
1374723866061,0.846722
1374723926061,0.843194
1374723986061,0.844223
1374724046061,0.841732
1374724106061,0.840735
1374724166061,0.844466
1374724226061,0.838967
1374724286061,0.841833
1374724346061,0.837349
1374724406061,0.844130
1374724466061,0.832473
1374724526061,0.841774
1374724586061,0.837828
1374724646061,0.836283
1374724706061,0.836016
1374724766061,0.840640
1374724826070,0.830330
1374724886070,0.828606
1374724946070,0.842094
1374725006070,0.831688
1374725066070,0.829533
1374725126070,0.838271
1374725186070,0.828244
1374725246070,0.837247
1374725306070,0.835608
1374725366070,0.830518
1374725426070,0.830764
1374725486070,0.829506
1374725546070,0.830043
1374725606070,0.829396
1374725666070,0.832744
1374725726070,0.831048
1374725786070,0.828008
1374725846070,0.834941
1374725906070,0.827754
1374725966070,0.831425
1374726026070,0.826026
1374726086070,0.822081
1374726146070,0.827127
1374726206070,0.824725
1374726266070,0.828045
1374726326070,0.813799
1374726386070,0.825196
1374726446070,0.829478
1374726506070,0.829838
1374726566070,0.814888
1374726626070,0.828889
1374726686070,0.816807
1374726746070,0.826318
1374726806070,0.820990
1374726866070,0.819450
1374726926070,0.823968
1374726986070,0.822047
1374727046070,0.824094
1374727106070,0.819999
1374727166070,0.817518
1374727226070,0.820441
1374727286070,0.813305
1374727346070,0.820935
1374727406070,0.817688
1374727466070,0.828342
1374727526070,0.823446
1374727586070,0.816050
1374727646070,0.821479
1374727706070,0.821693
1374727766070,0.816062
1374727826070,0.815944
1374727886070,0.821737
1374727946070,0.818294
1374728006070,0.822680
1374728066070,0.818317
1374728126070,0.821217
1374728186070,0.825150
1374728246070,0.822432
1374728306070,0.821354
1374728366070,0.822012
1374728426079,0.826302
1374728486079,0.828767
1374728546079,0.822413
1374728606079,0.821022
1374728666079,0.823969
1374728726079,0.820664
1374728786079,0.820718
1374728846079,0.828983
1374728906079,0.821306
1374728966079,0.822162
1374729026079,0.820374
1374729086079,0.823366
1374729146079,0.820515
1374729206079,0.817210
1374729266079,0.821934
1374729326079,0.816964
1374729386079,0.820352
1374729446079,0.817280
1374729506079,0.824192
1374729566079,0.825571
1374729626079,0.832015
1374729686079,0.819806
1374729746079,0.826059
1374729806079,0.821958
1374729866079,0.814315
1374729926079,0.819356
1374729986079,0.823788
1374730046079,0.816078
1374730106079,0.819908
1374730166079,0.821544
1374730226079,0.818759
1374730286079,0.815469
1374730346079,0.812218
1374730406079,0.822548
1374730466079,0.816773
1374730526079,0.817323
1374730586079,0.808383
1374730646079,0.812478
1374730706079,0.822252
1374730766079,0.819347
1374730826079,0.810892
1374730886079,0.819978
1374730946079,0.816590
1374731006079,0.819479
1374731066079,0.817394
1374731126079,0.818232
1374731186079,0.819429
1374731246079,0.818145
1374731306079,0.815053
1374731366079,0.810924
1374731426079,0.824556
1374731486079,0.823670
1374731546079,0.812552
1374731606079,0.821095
1374731666079,0.823224
1374731726079,0.813911
1374731786079,0.811079
1374731846079,0.816748
1374731906079,0.817110
1374731966079,0.810399
1374732026088,0.815160
1374732086088,0.830865
1374732146088,0.809401
1374732206088,0.817131
1374732266088,0.827525
1374732326088,0.832006
1374732386088,0.831261
1374732446088,0.845129
1374732506088,0.860473
1374732566088,0.873305
1374732626088,0.874736
1374732686088,0.876887
1374732746088,0.866077
1374732806088,0.860994
1374732866088,0.855038
1374732926088,0.850622
1374732986088,0.846879
1374733046088,0.850630
1374733106088,0.853917
1374733166088,0.839663
1374733226088,0.841894
1374733286088,0.848287
1374733346088,0.843403
1374733406088,0.849228
1374733466088,0.843950
1374733526088,0.834652
1374733586088,0.845758
1374733646088,0.841714
1374733706088,0.844285
1374733766088,0.841499
1374733826088,0.843748
1374733886088,0.839845
1374733946088,0.839998
1374734006088,0.838009
1374734066088,0.837509
1374734126088,0.839098
1374734186088,0.832725
1374734246088,0.834126
1374734306088,0.835446
1374734366088,0.829514
1374734426088,0.835102
1374734486088,0.830635
1374734546088,0.832423
1374734606088,0.826235
1374734666088,0.822902
1374734726088,0.830089
1374734786088,0.822431
1374734846088,0.825940
1374734906088,0.821562
1374734966088,0.823423
1374735026088,0.814395
1374735086088,0.825719
1374735146088,0.823787
1374735206088,0.818824
1374735266088,0.827469
1374735326088,0.810775
1374735386088,0.818993
1374735446088,0.822154
1374735506088,0.818261
1374735566088,0.819208
1374735626097,0.827269
1374735686097,0.824069
1374735746097,0.824138
1374735806097,0.829114
1374735866097,0.830868
1374735926097,0.824235
1374735986097,0.830911
1374736046097,0.838295
1374736106097,0.836988
1374736166097,0.832369
1374736226097,0.826146
1374736286097,0.829121
1374736826097,0.827903
1374736886097,0.889430
1374736946097,0.825410
1374737006097,0.831716
1374737066097,0.822329
1374737126097,0.824292
1374737186097,0.819537
1374737246097,0.832599
1374737306097,0.828371
1374737366097,0.820530
1374737426097,0.831835
1374737486097,0.826497
1374737546097,0.827741
1374737606097,0.834971
1374737666097,0.834565
1374737726097,0.833013
1374737786097,0.833950
1374737846097,0.833222
1374737906097,0.831683
1374737966097,0.834621
1374738026097,0.841729
1374738086097,0.830516
1374738146097,0.833964
1374738206097,0.840580
1374738266097,0.835119
1374738326097,0.834408
1374738386097,0.834676
1374738446097,0.830962
1374738506097,0.830314
1374738566097,0.834758
1374738626097,0.829493
1374738686097,0.828023
1374738746097,0.833152
1374738806097,0.831101
1374738866097,0.833065
1374738926097,0.825099
1374738986097,0.831561
1374739046097,0.834157
1374739106097,0.827933
1374739166097,0.830097
1374739226106,0.827333
1374739286106,0.836567
1374739346106,0.828110
1374739406106,0.824902
1374739466106,0.825994
1374739526106,0.824776
1374739586106,0.828024
1374739646106,0.828446
1374739706106,0.819889
1374739766106,0.828018
1374739826106,0.824891
1374739886106,0.830949
1374739946106,0.826794
1374740006106,0.822210
1374740066106,0.825362
1374740126106,0.825357
1374740186106,0.828211
1374740246106,0.825621
1374740306106,0.823084
1374740366106,0.821634
1374740426106,0.824971
1374740486106,0.823450
1374740546106,0.823754
1374740606106,0.831347
1374740666106,0.825636
1374740726106,0.829612
1374740786106,0.826725
1374740846106,0.821156
1374740906106,0.826925
1374740966106,0.824572
1374741026106,0.820805
1374741086106,0.823782
1374741146106,0.830178
1374741206106,0.831279
1374741266106,0.828098
1374741326106,0.831042
1374741386106,0.823522
1374741446106,0.827006
1374741506106,0.823311
1374741566106,0.825614
1374741626106,0.826591
1374741686106,0.830008
1374741746106,0.833601
1374741806106,0.830669
1374741866106,0.823203
1374741926106,0.835086
1374741986106,0.824686
1374742046106,0.820831
1374742106106,0.823995
1374742166106,0.825355
1374742226106,0.817280
1374742286106,0.822932
1374742346106,0.826287
1374742406106,0.831617
1374742466106,0.832095
1374742526106,0.831011
1374742586106,0.830562
1374742646106,0.824107
1374742706106,0.828190
1374742766106,0.823672
1374742826114,0.821333
1374742886114,0.819180
1374742946114,0.823152
1374743006114,0.818174
1374743066114,0.820294
1374743126114,0.819265
1374743186114,0.822975
1374743246114,0.819636
1374743306114,0.819227
1374743366114,0.837775
1374743426114,0.816268
1374743486114,0.817181
1374743546114,0.815625
1374743606114,0.817657
1374743666114,0.827812
1374743726114,0.818641
1374743786114,0.813308
1374743846114,0.820701
1374743906114,0.815640
1374743966114,0.819115
1374744026114,0.808836
1374744086114,0.816155
1374744146114,0.814875
1374744206114,0.813635
1374744266114,0.819034
1374744326114,0.818200
1374744386114,0.809948
1374744446114,0.811682
1374744506114,0.819797
1374744566114,0.814301
1374744626114,0.817787
1374744686114,0.814242
1374744746114,0.822370
1374744806114,0.825887
1374744866114,0.816639
1374744926114,0.812373
1374744986114,0.814812
1374745046114,0.824075
1374745106114,0.819523
1374745166114,0.813865
1374745226114,0.821982
1374745286114,0.810211
1374745346114,0.816739
1374745406114,0.826501
1374745466114,0.812343
1374745526114,0.817673
1374745586114,0.818886
1374745646114,0.819758
1374745706114,0.817557
1374745766114,0.811296
1374745826114,0.817574
1374745886114,0.813878
1374745946114,0.817848
1374746006114,0.813075
1374746066114,0.814633
1374746126114,0.812433
1374746186114,0.808669
1374746246114,0.814841
1374746306114,0.811335
1374746366114,0.814428
1374746426123,0.817169
1374746486123,0.810848
1374746546123,0.814971
1374746606123,0.816819
1374746666123,0.812840
1374746726123,0.814853
1374746786123,0.818501
1374746846123,0.813176
1374746906123,0.824601
1374746966123,0.820452
1374747026123,0.824633
1374747086123,0.824946
1374747146123,0.823986
1374747206123,0.825709
1374747266123,0.826723
1374747326123,0.816555
1374747386123,0.826336
1374747446123,0.827116
1374747506123,0.824613
1374747566123,0.824256
1374747626123,0.827598
1374747686123,0.826161
1374747746123,0.817780
1374747806123,0.823948
1374747866123,0.813576
1374747926123,0.828596
1374747986123,0.822453
1374748046123,0.821827
1374748106123,0.825291
1374748166123,0.823263
1374748226123,0.816203
1374748286123,0.825062
1374748346123,0.818901
1374748406123,0.829741
1374748466123,0.819376
1374748526123,0.816889
1374748586123,0.817337
1374748646123,0.823072
1374748706123,0.823638
1374748766123,0.827414
1374748826123,0.813932
1374748886123,0.820286
1374748946123,0.816541
1374749006123,0.821601
1374749066123,0.807636
1374749126123,0.808844
1374749186123,0.820453
1374749246123,0.816516
1374749306123,0.811639
1374749366123,0.816466
1374749426123,0.810340
1374749486123,0.820031
1374749546123,0.818086
1374749606123,0.812120
1374749666123,0.819282
1374749726123,0.809917
1374749786123,0.810607
1374749846123,0.812955
1374749906123,0.812886
1374749966123,0.821103
1374750026132,0.815760
1374750086132,0.812670
1374750146132,0.813323
1374750206132,0.816709
1374750266132,0.808410
1374750326132,0.815005
1374750386132,0.812361
1374750446132,0.810659
1374750506132,0.813900
1374750566132,0.811418
1374750626132,0.816749
1374750686132,0.807564
1374750746132,0.812689
1374750806132,0.813509
1374750866132,0.815945
1374750926132,0.814706
1374750986132,0.814309
1374751046132,0.814469
1374751106132,0.816297
1374751166132,0.808578
1374751226132,0.813152
1374751286132,0.810073
1374751346132,0.813858
1374751406132,0.812774
1374751466132,0.810691
1374751526132,0.818037
1374751586132,0.803108
1374751646132,0.812798
1374751706132,0.817740
1374751766132,0.809571
1374751826132,0.820781
1374751886132,0.808962
1374751946132,0.812104
1374752006132,0.813435
1374752066132,0.813436
1374752126132,0.810482
1374752186132,0.814932
1374752246132,0.801350
1374752306132,0.808708
1374752366132,0.810550
1374752426132,0.808464
1374752486132,0.818008
1374752546132,0.807710
1374752606132,0.812794
1374752666132,0.808855
1374752726132,0.807668
1374752786132,0.804097
1374752846132,0.816656
1374752906132,0.815607
1374752966132,0.808657
1374753026132,0.811637
1374753086132,0.818076
1374753146132,0.810359
1374753206132,0.807195
1374753266132,0.810911
1374753326132,0.817470
1374753386132,0.807378
1374753446132,0.800121
1374753506132,0.811109
1374753566132,0.805826
1374753626141,0.808264
1374753686141,0.817159
1374753746141,0.816829
1374753806141,0.808439
1374753866141,0.813543
1374753926141,0.814207
1374753986141,0.805237
1374754046141,0.810092
1374754106141,0.814167
1374754166141,0.803777
1374754226141,0.816936
1374754286141,0.808219
1374754346141,0.815549
1374754406141,0.812922
1374754466141,0.818310
1374754526141,0.817800
1374754586141,0.809049
1374754646141,0.810127
1374754706141,0.819102
1374754766141,0.817152
1374754826141,0.817834
1374754886141,0.813718
1374754946141,0.808983
1374755006141,0.814632
1374755066141,0.808633
1374755126141,0.819210
1374755186141,0.816009
1374755246141,0.814775
1374755306141,0.816121
1374755366141,0.821611
1374755426141,0.816199
1374755486141,0.821053
1374755546141,0.813476
1374755606141,0.818466
1374755666141,0.821415
1374755726141,0.812725
1374755786141,0.821687
1374755846141,0.814225
1374755906141,0.812751
1374755966141,0.814937
1374756026141,0.814385
1374756086141,0.813601
1374756146141,0.809632
1374756206141,0.818825
1374756266141,0.810884
1374756326141,0.812171
1374756386141,0.809689
1374756446141,0.808948
1374756506141,0.816365
1374756566141,0.813501
1374756626141,0.815198
1374756686141,0.808557
1374756746141,0.808667
1374756806141,0.811001
1374756866141,0.816029
1374756926141,0.813348
1374756986141,0.807341
1374757046141,0.817879
1374757106141,0.812838
1374757166141,0.817158
1374757226150,0.811982
1374757286150,0.813693
1374757346150,0.814645
1374757406150,0.818980
1374757466150,0.815701
1374757526150,0.812762
1374757586150,0.807624
1374757646150,0.821172
1374757706150,0.811290
1374757766150,0.819036
1374757826150,0.813799
1374757886150,0.812089
1374757946150,0.815332
1374758006150,0.815826
1374758066150,0.811182
1374758126150,0.813330
1374758186150,0.808417
1374758246150,0.821686
1374758306150,0.817637
1374758366150,0.811493
1374758426150,0.820035
1374758486150,0.806834
1374758546150,0.815999
1374758606150,0.809340
1374758666150,0.808013
1374758726150,0.809548
1374758786150,0.811629
1374758846150,0.809941
1374758906150,0.816636
1374758966150,0.815577
1374759026150,0.817738
1374759086150,0.817658
1374759146150,0.807476
1374759206150,0.816770
1374759266150,0.810786
1374759326150,0.817798
1374759386150,0.814449
1374759446150,0.813012
1374759506150,0.817236
1374759566150,0.817419
1374759626150,0.817981
1374759686150,0.814458
1374759746150,0.813049
1374759806150,0.814819
1374759866150,0.809241
1374759926150,0.813796
1374759986150,0.814575
1374760046150,0.817870
1374760106150,0.815060
1374760166150,0.815990
1374760226150,0.815488
1374760286150,0.810397
1374760346150,0.811232
1374760406150,0.812588
1374760466150,0.815632
1374760526150,0.811860
1374760586150,0.808028
1374760646150,0.816694
1374760706150,0.809569
1374760766150,0.809284
1374760826160,0.817879
1374760886160,0.810919
1374760946160,0.809687
1374761006160,0.817274
1374761066160,0.817520
1374761126160,0.815911
1374761186160,0.808953
1374761246160,0.811939
1374761306160,0.808225
1374761366160,0.813138
1374761426160,0.811124
1374761486160,0.818546
1374761546160,0.816596
1374761606160,0.813673
1374761666160,0.813381
1374761726160,0.809829
1374761786160,0.810618
1374761846160,0.823731
1374761906160,0.820089
1374761966160,0.814174
1374762026160,0.814296
1374762086160,0.811928
1374762146160,0.820397
1374762206160,0.812375
1374762266160,0.815252
1374762326160,0.818211
1374762386160,0.814694
1374762446160,0.817226
1374762506160,0.811869
1374762566160,0.812751
1374762626160,0.814905
1374762686160,0.810400
1374762746160,0.803161
1374762806160,0.813121
1374762866160,0.810733
1374762926160,0.814043
1374762986160,0.813257
1374763046160,0.813072
1374763106160,0.815550
1374763166160,0.815800
1374763226160,0.809257
1374763286160,0.811032
1374763346160,0.809317
1374763406160,0.807944
1374763466160,0.815356
1374763526160,0.800382
1374763586160,0.817302
1374763646160,0.816916
1374763706160,0.817027
1374763766160,0.811762
1374763826160,0.814969
1374763886160,0.810566
1374763946160,0.819631
1374764006160,0.809653
1374764066160,0.812631
1374764126160,0.812951
1374764186160,0.809215
1374764246160,0.808863
1374764306160,0.812249
1374764366160,0.811551
1374764426169,0.818344
1374764486169,0.806857
1374764546169,0.816558
1374764606169,0.816837
1374764666169,0.820818
1374764726169,0.815382
1374764786169,0.816487
1374764846169,0.814891
1374764906169,0.813696
1374764966169,0.813358
1374765026169,0.813413
1374765086169,0.810794
1374765146169,0.824991
1374765206169,0.812748
1374765266169,0.811860
1374765326169,0.818496
1374765386169,0.817903
1374765446169,0.807031
1374765506169,0.815463
1374765566169,0.813696
1374765626169,0.811401
1374765686169,0.820074
1374765746169,0.813779
1374765806169,0.810258
1374765866169,0.816444
1374765926169,0.816580
1374765986169,0.818353
1374766046169,0.811902
1374766106169,0.813991
1374766166169,0.808153
1374766226169,0.813585
1374766286169,0.811451
1374766346169,0.818870
1374766406169,0.820677
1374766466169,0.817600
1374766526169,0.811020
1374766586169,0.820393
1374766646169,0.813294
1374766706169,0.816173
1374766766169,0.811552
1374766826169,0.814001
1374766886169,0.812343
1374766946169,0.817243
1374767006169,0.815479
1374767066169,0.816869
1374767126169,0.815154
1374767186169,0.820592
1374767246169,0.818403
1374767306169,0.805269
1374767366169,0.819844
1374767426169,0.809271
1374767486169,0.809288
1374767546169,0.814234
1374767606169,0.809701
1374767666169,0.816413
1374767726169,0.818497
1374767786169,0.822969
1374767846169,0.815218
1374767906169,0.811891
1374767966169,0.820928
1374768026179,0.816808
1374768086179,0.814386
1374768146179,0.815816
1374768206179,0.817036
1374768266179,0.818464
1374768326179,0.815103
1374768386179,0.810534
1374768446179,0.817495
1374768506179,0.826563
1374768566179,0.823116
1374768626179,0.822130
1374768686179,0.820094
1374768746179,0.823767
1374768806179,0.816993
1374768866179,0.818945
1374768926179,0.816111
1374768986179,0.816605
1374769046179,0.819158
1374769106179,0.807814
1374769166179,0.817176
1374769226179,0.819889
1374769286179,0.812802
1374769346179,0.809319
1374769406179,0.808458
1374769466179,0.827116
1374769526179,0.814459
1374769586179,0.811294
1374769646179,0.818642
1374769706179,0.817661
1374769766179,0.813960
1374769826179,0.809336
1374769886179,0.812408
1374769946179,0.821554
1374770006179,0.820831
1374770066179,0.817428
1374770126179,0.801863
1374770186179,0.819858
1374770246179,0.821119
1374770306179,0.806353
1374770366179,0.819950
1374770426179,0.816947
1374770486179,0.819049
1374770546179,0.818906
1374770606179,0.815856
1374770666179,0.813617
1374770726179,0.808896
1374770786179,0.815605
1374770846179,0.814582
1374770906179,0.807383
1374770966179,0.821177
1374771026179,0.818674
1374771086179,0.819236
1374771146179,0.812237
1374771206179,0.816374
1374771266179,0.810346
1374771326179,0.811917
1374771386179,0.815237
1374771446179,0.809402
1374771506179,0.809462
1374771566179,0.809415
1374771626189,0.812493
1374771686189,0.813948
1374771746189,0.813050
1374771806189,0.810705
1374771866189,0.817614
1374771926189,0.813361
1374771986189,0.815242
1374772046189,0.817725
1374772106189,0.821265
1374772166189,0.815926
1374772226189,0.819869
1374772286189,0.812160
1374772346189,0.811797
1374772406189,0.820124
1374772466189,0.822943
1374772526189,0.815531
1374772586189,0.819366
1374772646189,0.823654
1374772706189,0.816700
1374772766189,0.817002
1374772826189,0.814157
1374772886189,0.810714
1374772946189,0.813760
1374773006189,0.809756
1374773066189,0.817709
1374773126189,0.818557
1374773186189,0.809810
1374773246189,0.816658
1374773306189,0.812832
1374773366189,0.818818
1374773426189,0.816333